When you browse on this site, cookies collect data to enhance your experience and personalize the content and advertising you see.
Visit our Privacy Policy to learn more. By continuing to use the site, you agree to this use of cookies and data.
  • en Suisse
  • Liste des pays
  • À 7 jours
  • Température de l'eau
  • Carte satellitaire
  • Carte météo
  • Widgets météo
  • user-avatar
    Se connecter

    Météo par heure à Gorbachevo

    Ce jour, 22 Juillet, Lundi

    Heure Température Précipitation Vent Pression Humidité
    00:00 +16°C° 0 mm 1 m/s 750 mmHg 91%
    01:00 +15°C° 0 mm 1 m/s 750 mmHg 91%
    02:00 +15°C° 0 mm 1 m/s 750 mmHg 92%
    03:00 +14°C° 0 mm 0 m/s 750 mmHg 92%
    04:00 +15°C° 0 mm 0 m/s 750 mmHg 92%
    05:00 +15°C° 0 mm 0 m/s 750 mmHg 92%
    06:00 +19°C° 0 mm 1 m/s 750 mmHg 87%
    07:00 +20°C° 0 mm 1 m/s 750 mmHg 82%
    08:00 +22°C° 0 mm 1 m/s 750 mmHg 78%
    09:00 +23°C° 0 mm 1 m/s 750 mmHg 72%
    10:00 +24°C° 0 mm 1 m/s 750 mmHg 66%
    11:00 +25°C° 0 mm 1 m/s 750 mmHg 61%
    12:00 +26°C° 0 mm 1 m/s 749 mmHg 59%
    13:00 +26°C° 0 mm 2 m/s 749 mmHg 57%
    14:00 +27°C° 0 mm 2 m/s 748 mmHg 55%
    15:00 +26°C° 0 mm 2 m/s 748 mmHg 59%
    16:00 +26°C° 0 mm 2 m/s 748 mmHg 62%
    17:00 +26°C° 0 mm 1 m/s 748 mmHg 66%
    18:00 +24°C° 0.2 mm 2 m/s 748 mmHg 72%
    19:00 +21°C° 0.2 mm 2 m/s 747 mmHg 78%
    20:00 +19°C° 0.2 mm 2 m/s 747 mmHg 84%
    21:00 +19°C° 0.4 mm 2 m/s 747 mmHg 88%
    22:00 +19°C° 0.4 mm 1 m/s 747 mmHg 92%
    23:00 +19°C° 0.4 mm 1 m/s 747 mmHg 95%

    Demain, 23 Juillet, Mardi

    Heure Température Précipitation Vent Pression Humidité
    00:00 +19°C° 0.2 mm 1 m/s 746 mmHg 95%
    01:00 +18°C° 0.2 mm 2 m/s 746 mmHg 95%
    02:00 +18°C° 0.2 mm 3 m/s 746 mmHg 95%
    03:00 +18°C° 0.3 mm 3 m/s 746 mmHg 96%
    04:00 +18°C° 0.3 mm 3 m/s 745 mmHg 96%
    05:00 +18°C° 0.3 mm 3 m/s 745 mmHg 96%
    06:00 +18°C° 0.2 mm 3 m/s 745 mmHg 95%
    07:00 +19°C° 0.2 mm 3 m/s 745 mmHg 94%
    08:00 +19°C° 0.2 mm 4 m/s 745 mmHg 93%
    09:00 +20°C° 0.3 mm 3 m/s 745 mmHg 91%
    10:00 +20°C° 0.3 mm 3 m/s 745 mmHg 89%
    11:00 +21°C° 0.3 mm 3 m/s 745 mmHg 87%
    12:00 +22°C° 0.5 mm 3 m/s 745 mmHg 82%
    13:00 +24°C° 0.5 mm 3 m/s 745 mmHg 77%
    14:00 +25°C° 0.5 mm 2 m/s 744 mmHg 72%
    15:00 +24°C° 0.1 mm 3 m/s 744 mmHg 73%
    16:00 +24°C° 0.1 mm 3 m/s 744 mmHg 74%
    17:00 +24°C° 0.1 mm 3 m/s 744 mmHg 75%
    18:00 +21°C° 0 mm 2 m/s 744 mmHg 81%
    19:00 +20°C° 0 mm 2 m/s 744 mmHg 86%
    20:00 +19°C° 0 mm 1 m/s 744 mmHg 91%
    21:00 +18°C° 0 mm 2 m/s 744 mmHg 92%
    22:00 +17°C° 0 mm 2 m/s 744 mmHg 93%
    23:00 +17°C° 0 mm 2 m/s 744 mmHg 94%

    Après-demain, 24 Juillet, Mercredi

    Heure Température Précipitation Vent Pression Humidité
    00:00 +16°C° 0 mm 2 m/s 744 mmHg 95%
    01:00 +16°C° 0 mm 1 m/s 744 mmHg 95%
    02:00 +16°C° 0 mm 1 m/s 744 mmHg 96%
    03:00 +16°C° 0 mm 1 m/s 744 mmHg 95%
    04:00 +18°C° 0 mm 1 m/s 744 mmHg 95%
    05:00 +18°C° 0 mm 1 m/s 745 mmHg 94%
    06:00 +17°C° 0 mm 0 m/s 745 mmHg 91%
    07:00 +18°C° 0 mm 0 m/s 745 mmHg 87%
    08:00 +19°C° 0 mm 0 m/s 745 mmHg 84%
    09:00 +21°C° 0.4 mm 1 m/s 745 mmHg 85%
    10:00 +21°C° 0.4 mm 1 m/s 745 mmHg 86%
    11:00 +21°C° 0.4 mm 1 m/s 745 mmHg 88%
    12:00 +21°C° 0.6 mm 1 m/s 745 mmHg 88%
    13:00 +21°C° 0.6 mm 1 m/s 746 mmHg 88%
    14:00 +21°C° 0.6 mm 1 m/s 746 mmHg 88%
    15:00 +20°C° 0.3 mm 1 m/s 746 mmHg 90%
    16:00 +19°C° 0.3 mm 2 m/s 746 mmHg 93%
    17:00 +18°C° 0.3 mm 2 m/s 746 mmHg 95%
    18:00 +18°C° 1 mm 2 m/s 746 mmHg 96%
    19:00 +18°C° 1 mm 2 m/s 746 mmHg 96%
    20:00 +18°C° 1 mm 2 m/s 746 mmHg 97%
    21:00 +18°C° 0.2 mm 3 m/s 746 mmHg 97%
    22:00 +18°C° 0.2 mm 3 m/s 747 mmHg 97%
    23:00 +18°C° 0.2 mm 3 m/s 747 mmHg 96%

    25 Juillet, Jeudi

    Heure Température Précipitation Vent Pression Humidité
    00:00 +18°C° 0.1 mm 3 m/s 747 mmHg 96%
    01:00 +18°C° 0.1 mm 3 m/s 747 mmHg 96%
    02:00 +18°C° 0.1 mm 3 m/s 747 mmHg 95%
    03:00 +18°C° 0 mm 3 m/s 747 mmHg 95%
    04:00 +18°C° 0 mm 3 m/s 747 mmHg 94%
    05:00 +18°C° 0 mm 4 m/s 747 mmHg 94%
    06:00 +19°C° 0 mm 4 m/s 748 mmHg 92%
    07:00 +19°C° 0 mm 4 m/s 748 mmHg 91%
    08:00 +20°C° 0 mm 3 m/s 748 mmHg 89%
    09:00 +21°C° 0.5 mm 3 m/s 749 mmHg 84%
    10:00 +24°C° 0.5 mm 3 m/s 749 mmHg 79%
    11:00 +25°C° 0.5 mm 3 m/s 749 mmHg 74%
    12:00 +25°C° 0.7 mm 2 m/s 749 mmHg 73%
    13:00 +26°C° 0.7 mm 2 m/s 749 mmHg 71%
    14:00 +26°C° 0.7 mm 2 m/s 749 mmHg 70%
    15:00 +26°C° 0.7 mm 2 m/s 749 mmHg 73%
    16:00 +26°C° 0.7 mm 2 m/s 749 mmHg 75%
    17:00 +25°C° 0.7 mm 3 m/s 749 mmHg 78%
    18:00 +24°C° 0.4 mm 3 m/s 749 mmHg 83%
    19:00 +21°C° 0.4 mm 3 m/s 749 mmHg 87%
    20:00 +19°C° 0.4 mm 3 m/s 749 mmHg 91%
    21:00 +19°C° 0 mm 3 m/s 749 mmHg 92%
    22:00 +18°C° 0 mm 3 m/s 750 mmHg 92%
    23:00 +18°C° 0 mm 2 m/s 750 mmHg 93%

    26 Juillet, Vendredi

    Heure Température Précipitation Vent Pression Humidité
    00:00 +17°C° 0 mm 3 m/s 749 mmHg 94%
    01:00 +17°C° 0 mm 3 m/s 749 mmHg 94%
    02:00 +17°C° 0 mm 3 m/s 749 mmHg 95%
    03:00 +17°C° 0 mm 3 m/s 749 mmHg 95%
    04:00 +17°C° 0 mm 3 m/s 749 mmHg 94%
    05:00 +17°C° 0 mm 3 m/s 749 mmHg 94%
    06:00 +18°C° 0 mm 3 m/s 749 mmHg 89%
    07:00 +19°C° 0 mm 3 m/s 749 mmHg 84%
    08:00 +21°C° 0 mm 3 m/s 749 mmHg 79%
    09:00 +22°C° 0 mm 4 m/s 749 mmHg 74%
    10:00 +23°C° 0 mm 4 m/s 749 mmHg 69%
    11:00 +25°C° 0 mm 5 m/s 749 mmHg 64%
    12:00 +26°C° 0.1 mm 5 m/s 749 mmHg 62%
    13:00 +26°C° 0.1 mm 5 m/s 748 mmHg 60%
    14:00 +26°C° 0.1 mm 5 m/s 748 mmHg 58%
    15:00 +25°C° 0 mm 4 m/s 748 mmHg 62%
    16:00 +25°C° 0 mm 3 m/s 748 mmHg 65%
    17:00 +25°C° 0 mm 3 m/s 748 mmHg 68%
    18:00 +23°C° 0 mm 2 m/s 748 mmHg 72%
    19:00 +20°C° 0 mm 2 m/s 748 mmHg 76%
    20:00 +19°C° 0 mm 2 m/s 748 mmHg 80%
    21:00 +18°C° 0 mm 2 m/s 748 mmHg 81%
    22:00 +17°C° 0 mm 3 m/s 748 mmHg 83%
    23:00 +16°C° 0 mm 3 m/s 748 mmHg 85%

    27 Juillet, Samedi

    Heure Température Précipitation Vent Pression Humidité
    00:00 +14°C° 0 mm 3 m/s 748 mmHg 87%
    01:00 +13°C° 0 mm 3 m/s 748 mmHg 90%
    02:00 +12°C° 0 mm 3 m/s 748 mmHg 93%
    03:00 +12°C° 0 mm 3 m/s 748 mmHg 92%
    04:00 +13°C° 0 mm 3 m/s 748 mmHg 91%
    05:00 +13°C° 0 mm 3 m/s 748 mmHg 90%
    06:00 +14°C° 0 mm 4 m/s 748 mmHg 85%
    07:00 +17°C° 0 mm 4 m/s 748 mmHg 81%
    08:00 +18°C° 0 mm 4 m/s 747 mmHg 76%
    09:00 +19°C° 0 mm 4 m/s 747 mmHg 71%
    10:00 +21°C° 0 mm 4 m/s 747 mmHg 66%
    11:00 +22°C° 0 mm 4 m/s 747 mmHg 61%
    12:00 +22°C° 0 mm 4 m/s 747 mmHg 60%
    13:00 +23°C° 0 mm 4 m/s 746 mmHg 59%
    14:00 +23°C° 0 mm 4 m/s 746 mmHg 58%
    15:00 +24°C° 0 mm 3 m/s 746 mmHg 62%
    16:00 +22°C° 0 mm 3 m/s 745 mmHg 67%
    17:00 +22°C° 0 mm 3 m/s 745 mmHg 71%
    18:00 +20°C° 0 mm 2 m/s 745 mmHg 75%
    19:00 +19°C° 0 mm 1 m/s 745 mmHg 78%
    20:00 +18°C° 0 mm 1 m/s 744 mmHg 82%
    21:00 +18°C° 0.2 mm 1 m/s 744 mmHg 84%
    22:00 +17°C° 0.2 mm 2 m/s 744 mmHg 86%
    23:00 +18°C° 0.2 mm 2 m/s 743 mmHg 88%
    Voir plus